Time,TemperatureF,DewpointF,PressureIn,WindDirection,WindDirectionDegrees,WindSpeedMPH,WindSpeedGustMPH,Humidity,HourlyPrecipIn,Conditions,Clouds,dailyrainin,SolarRadiationWatts/m^2,SoftwareType,DateUTC
2013-11-09 00:01:00,77.7,71.1,30.02,ENE,60,9.0,18.0,80,0.00,,,0.35,0.0,meteohub,2013-11-09 05:01:00,
2013-11-09 00:02:00,77.7,71.1,30.02,ENE,64,14.0,18.0,80,0.00,,,0.35,0.0,meteohub,2013-11-09 05:02:00,
2013-11-09 00:07:00,77.7,71.1,30.02,NE,48,8.0,19.0,80,0.00,,,0.00,0.0,meteohub,2013-11-09 05:07:00,
2013-11-09 00:12:00,77.9,71.2,30.02,NE,56,1.0,21.0,80,0.00,,,0.00,0.0,meteohub,2013-11-09 05:12:00,
2013-11-09 00:17:00,77.9,71.2,30.02,NNE,22,7.0,21.0,80,0.00,,,0.00,0.0,meteohub,2013-11-09 05:17:00,
2013-11-09 00:22:00,77.9,71.6,30.01,NE,47,4.0,21.0,81,0.00,,,0.00,0.0,meteohub,2013-11-09 05:22:00,
2013-11-09 00:27:00,77.9,71.6,30.01,ENE,67,12.0,17.0,81,0.00,,,0.00,0.0,meteohub,2013-11-09 05:27:00,
2013-11-09 00:32:00,77.7,71.4,30.01,NE,44,9.0,15.0,81,0.00,,,0.00,0.0,meteohub,2013-11-09 05:32:00,
2013-11-09 00:37:00,77.9,71.6,30.01,NNE,32,3.0,22.0,81,0.00,,,0.00,0.0,meteohub,2013-11-09 05:37:00,
2013-11-09 00:42:00,77.9,71.6,30.01,NE,52,11.0,22.0,81,0.00,,,0.00,0.0,meteohub,2013-11-09 05:42:00,
2013-11-09 00:47:00,77.9,71.6,30.01,NE,38,4.0,22.0,81,0.00,,,0.00,0.0,meteohub,2013-11-09 05:47:00,
2013-11-09 00:52:00,77.9,71.6,30.01,NE,53,7.0,19.0,81,0.00,,,0.00,0.0,meteohub,2013-11-09 05:52:00,
2013-11-09 00:57:00,77.7,71.8,30.01,NE,51,11.0,19.0,82,0.00,,,0.00,0.0,meteohub,2013-11-09 05:57:00,
2013-11-09 01:02:00,77.5,71.6,30.01,NE,53,5.0,16.0,82,0.00,,,0.00,0.0,meteohub,2013-11-09 06:02:00,
2013-11-09 01:07:00,77.5,72.0,30.02,NE,49,5.0,14.0,83,0.00,,,0.00,0.0,meteohub,2013-11-09 06:07:00,
2013-11-09 01:12:00,77.4,71.4,30.01,NE,46,13.0,13.0,82,0.00,,,0.00,0.0,meteohub,2013-11-09 06:12:00,
2013-11-09 01:17:00,77.4,71.8,30.02,ENE,60,7.0,16.0,83,0.00,,,0.00,0.0,meteohub,2013-11-09 06:17:00,
2013-11-09 01:22:00,76.8,72.0,30.01,ENE,64,3.0,16.0,85,0.01,,,0.01,0.0,meteohub,2013-11-09 06:22:00,
2013-11-09 01:27:00,76.3,71.8,30.01,ENE,59,8.0,16.0,86,0.01,,,0.01,0.0,meteohub,2013-11-09 06:27:00,
2013-11-09 01:32:00,76.3,71.8,30.01,NE,53,12.0,17.0,86,0.01,,,0.01,0.0,meteohub,2013-11-09 06:32:00,
2013-11-09 01:37:00,76.3,71.8,30.01,NE,35,10.0,17.0,86,0.01,,,0.01,0.0,meteohub,2013-11-09 06:37:00,
2013-11-09 01:42:00,76.5,72.0,30.01,NE,50,7.0,16.0,86,0.01,,,0.01,0.0,meteohub,2013-11-09 06:42:00,
2013-11-09 01:47:00,76.5,72.3,30.01,NE,42,13.0,16.0,87,0.01,,,0.01,0.0,meteohub,2013-11-09 06:47:00,
2013-11-09 01:52:00,76.6,72.1,30.01,NE,55,9.0,16.0,86,0.01,,,0.01,0.0,meteohub,2013-11-09 06:52:00,
2013-11-09 01:57:00,76.8,72.3,30.01,ENE,59,9.0,16.0,86,0.01,,,0.01,0.0,meteohub,2013-11-09 06:57:00,
2013-11-09 02:02:00,76.8,71.6,30.00,East,85,6.0,20.0,84,0.01,,,0.01,0.0,meteohub,2013-11-09 07:02:00,
2013-11-09 02:07:00,77.0,71.8,30.00,NE,49,3.0,20.0,84,0.01,,,0.01,0.0,meteohub,2013-11-09 07:07:00,
2013-11-09 02:13:00,77.0,71.8,30.00,NE,42,8.0,20.0,84,0.01,,,0.01,0.0,meteohub,2013-11-09 07:13:00,
2013-11-09 02:18:00,77.2,72.0,30.01,East,80,9.0,19.0,84,0.01,,,0.01,0.0,meteohub,2013-11-09 07:18:00,
2013-11-09 02:23:00,76.3,71.4,30.01,ENE,76,17.0,24.0,85,0.00,,,0.01,0.0,meteohub,2013-11-09 07:23:00,
2013-11-09 02:28:00,75.2,71.1,30.01,ENE,57,12.0,24.0,87,0.00,,,0.01,0.0,meteohub,2013-11-09 07:28:00,
2013-11-09 02:33:00,74.7,70.9,30.01,ENE,70,7.0,24.0,88,0.01,,,0.02,0.0,meteohub,2013-11-09 07:33:00,
2013-11-09 02:38:00,74.5,71.4,30.01,NE,54,8.0,18.0,90,0.01,,,0.02,0.0,meteohub,2013-11-09 07:38:00,
2013-11-09 02:43:00,74.5,71.6,30.00,NE,38,10.0,17.0,91,0.01,,,0.02,0.0,meteohub,2013-11-09 07:43:00,
2013-11-09 02:48:00,74.5,71.6,30.00,NNE,28,7.0,17.0,91,0.01,,,0.02,0.0,meteohub,2013-11-09 07:48:00,
2013-11-09 02:53:00,74.7,71.8,30.00,NE,36,10.0,17.0,91,0.01,,,0.02,0.0,meteohub,2013-11-09 07:53:00,
2013-11-09 02:58:00,74.8,72.3,30.01,ENE,57,8.0,15.0,92,0.01,,,0.02,0.0,meteohub,2013-11-09 07:58:00,
2013-11-09 03:03:00,75.0,72.1,30.01,NNE,28,7.0,15.0,91,0.01,,,0.02,0.0,meteohub,2013-11-09 08:03:00,
2013-11-09 03:08:00,75.4,72.3,30.01,ENE,69,12.0,15.0,90,0.01,,,0.02,0.0,meteohub,2013-11-09 08:08:00,
2013-11-09 03:13:00,75.7,72.3,30.01,ENE,69,13.0,19.0,89,0.01,,,0.02,0.0,meteohub,2013-11-09 08:13:00,
2013-11-09 03:18:00,75.9,72.1,30.01,NE,34,6.0,20.0,88,0.01,,,0.02,0.0,meteohub,2013-11-09 08:18:00,
2013-11-09 03:23:00,76.3,72.1,30.01,ENE,65,11.0,20.0,87,0.01,,,0.02,0.0,meteohub,2013-11-09 08:23:00,
2013-11-09 03:28:00,75.7,72.0,30.01,ESE,107,11.0,22.0,88,0.00,,,0.02,0.0,meteohub,2013-11-09 08:28:00,
2013-11-09 03:33:00,75.0,72.0,30.02,East,84,8.0,24.0,90,0.02,,,0.04,0.0,meteohub,2013-11-09 08:33:00,
2013-11-09 03:38:00,74.7,71.6,30.02,East,90,14.0,24.0,90,0.02,,,0.04,0.0,meteohub,2013-11-09 08:38:00,
2013-11-09 03:43:00,74.1,71.6,30.02,ENE,74,5.0,24.0,92,0.03,,,0.05,0.0,meteohub,2013-11-09 08:43:00,
2013-11-09 03:48:00,74.1,71.6,30.01,NE,53,7.0,21.0,92,0.07,,,0.09,0.0,meteohub,2013-11-09 08:48:00,
2013-11-09 03:53:00,74.1,72.0,30.01,ENE,63,10.0,21.0,93,0.07,,,0.09,0.0,meteohub,2013-11-09 08:53:00,
2013-11-09 03:58:00,74.1,72.0,30.01,ENE,60,10.0,14.0,93,0.08,,,0.10,0.0,meteohub,2013-11-09 08:58:00,
2013-11-09 04:03:00,73.9,71.8,30.01,ENE,65,14.0,21.0,93,0.08,,,0.10,0.0,meteohub,2013-11-09 09:03:00,
2013-11-09 04:08:00,73.8,71.6,30.01,ENE,59,8.0,21.0,93,0.08,,,0.10,0.0,meteohub,2013-11-09 09:08:00,
2013-11-09 04:13:00,73.8,72.0,30.01,ENE,58,15.0,21.0,94,0.08,,,0.10,0.0,meteohub,2013-11-09 09:13:00,
2013-11-09 04:18:00,73.6,71.8,30.01,NE,53,14.0,20.0,94,0.08,,,0.10,0.0,meteohub,2013-11-09 09:18:00,
2013-11-09 04:23:00,73.6,71.8,30.01,NE,55,13.0,20.0,94,0.08,,,0.10,0.0,meteohub,2013-11-09 09:23:00,
2013-11-09 04:28:00,73.6,71.8,30.01,ENE,61,10.0,20.0,94,0.06,,,0.10,0.0,meteohub,2013-11-09 09:28:00,
2013-11-09 04:33:00,73.6,71.8,30.01,ENE,62,11.0,17.0,94,0.06,,,0.10,0.0,meteohub,2013-11-09 09:33:00,
2013-11-09 04:38:00,73.8,72.0,30.02,ESE,103,10.0,14.0,94,0.06,,,0.10,0.0,meteohub,2013-11-09 09:38:00,
2013-11-09 04:43:00,73.9,72.1,30.02,ENE,63,12.0,19.0,94,0.07,,,0.13,0.0,meteohub,2013-11-09 09:43:00,
2013-11-09 04:48:00,73.9,72.1,30.02,ENE,58,9.0,19.0,94,0.05,,,0.14,0.0,meteohub,2013-11-09 09:48:00,
2013-11-09 04:53:00,73.9,72.1,30.02,ENE,73,7.0,19.0,94,0.05,,,0.14,0.0,meteohub,2013-11-09 09:53:00,
2013-11-09 04:58:00,73.8,72.0,30.02,ENE,63,11.0,23.0,94,0.04,,,0.14,0.0,meteohub,2013-11-09 09:58:00,
2013-11-09 05:04:00,73.8,72.0,30.02,NE,46,12.0,23.0,94,0.04,,,0.14,0.0,meteohub,2013-11-09 10:04:00,
2013-11-09 05:09:00,73.8,72.0,30.02,NE,55,10.0,19.0,94,0.04,,,0.14,0.0,meteohub,2013-11-09 10:09:00,
2013-11-09 05:14:00,73.8,72.3,30.02,NE,55,5.0,18.0,95,0.04,,,0.14,0.0,meteohub,2013-11-09 10:14:00,
2013-11-09 05:19:00,73.8,72.3,30.03,East,80,5.0,18.0,95,0.04,,,0.14,0.0,meteohub,2013-11-09 10:19:00,
2013-11-09 05:24:00,73.6,72.1,30.03,NE,53,5.0,18.0,95,0.04,,,0.14,0.0,meteohub,2013-11-09 10:24:00,
2013-11-09 05:29:00,73.6,72.1,30.03,ENE,59,4.0,16.0,95,0.04,,,0.14,0.0,meteohub,2013-11-09 10:29:00,
2013-11-09 05:34:00,73.8,72.3,30.03,NE,53,6.0,14.0,95,0.04,,,0.14,0.0,meteohub,2013-11-09 10:34:00,
2013-11-09 05:39:00,73.8,72.3,30.03,ENE,59,9.0,14.0,95,0.04,,,0.14,0.0,meteohub,2013-11-09 10:39:00,
2013-11-09 05:44:00,73.8,72.3,30.04,East,80,9.0,16.0,95,0.01,,,0.14,0.0,meteohub,2013-11-09 10:44:00,
2013-11-09 05:49:00,73.8,72.3,30.04,NE,46,9.0,16.0,95,0.00,,,0.14,0.0,meteohub,2013-11-09 10:49:00,
2013-11-09 05:54:00,73.8,72.3,30.04,East,82,15.0,21.0,95,0.03,,,0.17,0.0,meteohub,2013-11-09 10:54:00,
2013-11-09 05:59:00,73.8,72.3,30.04,East,86,14.0,21.0,95,0.10,,,0.24,0.0,meteohub,2013-11-09 10:59:00,
2013-11-09 06:04:00,73.6,72.1,30.04,ENE,63,16.0,21.0,95,0.10,,,0.24,0.0,meteohub,2013-11-09 11:04:00,
2013-11-09 06:09:00,73.4,72.0,30.04,ENE,75,12.0,23.0,95,0.12,,,0.26,0.0,meteohub,2013-11-09 11:09:00,
2013-11-09 06:14:00,73.4,72.0,30.05,NE,55,6.0,23.0,95,0.15,,,0.29,0.0,meteohub,2013-11-09 11:14:00,
2013-11-09 06:19:00,73.2,71.8,30.04,East,98,13.0,23.0,95,0.15,,,0.29,0.0,meteohub,2013-11-09 11:19:00,
2013-11-09 06:24:00,73.2,71.8,30.04,ENE,74,7.0,22.0,95,0.15,,,0.29,0.0,meteohub,2013-11-09 11:24:00,
2013-11-09 06:29:00,73.0,71.6,30.05,ENE,71,10.0,18.0,95,0.15,,,0.29,0.0,meteohub,2013-11-09 11:29:00,
2013-11-09 06:34:00,73.0,71.6,30.05,ENE,61,11.0,18.0,95,0.15,,,0.29,0.0,meteohub,2013-11-09 11:34:00,
2013-11-09 06:39:00,73.2,71.8,30.05,ENE,61,9.0,18.0,95,0.15,,,0.29,0.0,meteohub,2013-11-09 11:39:00,
2013-11-09 06:44:00,73.6,72.1,30.05,NE,43,6.0,16.0,95,0.15,,,0.29,0.0,meteohub,2013-11-09 11:44:00,
2013-11-09 06:49:00,73.8,72.0,30.05,East,80,6.0,16.0,94,0.15,,,0.29,0.0,meteohub,2013-11-09 11:49:00,
2013-11-09 06:54:00,73.9,72.1,30.05,NE,54,6.0,17.0,94,0.08,,,0.29,11.0,meteohub,2013-11-09 11:54:00,
2013-11-09 06:59:00,74.3,72.1,30.05,ENE,68,8.0,17.0,93,0.05,,,0.29,14.0,meteohub,2013-11-09 11:59:00,
2013-11-09 07:04:00,74.7,72.1,30.06,ENE,66,5.0,17.0,92,0.04,,,0.29,12.0,meteohub,2013-11-09 12:04:00,
2013-11-09 07:09:00,74.7,72.1,30.06,ENE,73,4.0,16.0,92,0.02,,,0.29,5.0,meteohub,2013-11-09 12:09:00,
2013-11-09 07:14:00,74.5,72.3,30.06,ENE,67,10.0,16.0,93,0.02,,,0.29,5.0,meteohub,2013-11-09 12:14:00,
2013-11-09 07:19:00,74.3,72.5,30.06,ENE,74,12.0,16.0,94,0.03,,,0.32,9.0,meteohub,2013-11-09 12:19:00,
2013-11-09 07:24:00,74.1,72.3,30.07,ENE,78,8.0,17.0,94,0.05,,,0.34,23.0,meteohub,2013-11-09 12:24:00,
2013-11-09 07:29:00,73.9,72.1,30.07,ENE,69,13.0,17.0,94,0.05,,,0.34,26.0,meteohub,2013-11-09 12:29:00,
2013-11-09 07:34:00,73.8,72.0,30.07,ENE,62,11.0,17.0,94,0.05,,,0.34,11.0,meteohub,2013-11-09 12:34:00,
2013-11-09 07:39:00,73.8,72.0,30.07,ENE,66,8.0,20.0,94,0.05,,,0.34,18.0,meteohub,2013-11-09 12:39:00,
2013-11-09 07:45:00,73.9,72.1,30.08,East,98,9.0,20.0,94,0.05,,,0.34,51.0,meteohub,2013-11-09 12:45:00,
2013-11-09 07:50:00,73.9,72.1,30.08,East,92,10.0,17.0,94,0.05,,,0.34,44.0,meteohub,2013-11-09 12:50:00,
2013-11-09 07:55:00,74.1,72.3,30.08,ENE,62,8.0,17.0,94,0.05,,,0.34,56.0,meteohub,2013-11-09 12:55:00,
2013-11-09 08:00:00,73.9,72.1,30.09,ENE,69,5.0,17.0,94,0.05,,,0.34,65.0,meteohub,2013-11-09 13:00:00,
2013-11-09 08:05:00,73.9,72.1,30.09,East,84,6.0,17.0,94,0.05,,,0.34,30.0,meteohub,2013-11-09 13:05:00,
2013-11-09 08:10:00,73.9,72.1,30.08,ESE,103,8.0,17.0,94,0.05,,,0.34,37.0,meteohub,2013-11-09 13:10:00,
2013-11-09 08:15:00,73.9,72.1,30.09,ENE,77,3.0,17.0,94,0.03,,,0.34,12.0,meteohub,2013-11-09 13:15:00,
2013-11-09 08:20:00,74.1,72.3,30.09,ENE,59,7.0,14.0,94,0.02,,,0.38,70.0,meteohub,2013-11-09 13:20:00,
2013-11-09 08:25:00,74.1,72.7,30.09,ENE,63,8.0,14.0,95,0.04,,,0.39,93.0,meteohub,2013-11-09 13:25:00,
2013-11-09 08:30:00,74.1,72.7,30.09,ENE,59,10.0,14.0,95,0.05,,,0.39,33.0,meteohub,2013-11-09 13:30:00,
2013-11-09 08:35:00,74.1,72.3,30.09,ENE,73,9.0,16.0,94,0.05,,,0.39,149.0,meteohub,2013-11-09 13:35:00,
2013-11-09 08:40:00,74.1,72.3,30.09,East,97,9.0,16.0,94,0.05,,,0.39,83.0,meteohub,2013-11-09 13:40:00,
2013-11-09 08:45:00,74.1,72.3,30.09,ENE,74,12.0,16.0,94,0.05,,,0.39,139.0,meteohub,2013-11-09 13:45:00,
2013-11-09 08:50:00,74.1,72.3,30.09,ENE,64,12.0,17.0,94,0.05,,,0.39,163.0,meteohub,2013-11-09 13:50:00,
2013-11-09 08:55:00,74.5,73.0,30.09,ENE,59,10.0,17.0,95,0.05,,,0.39,229.0,meteohub,2013-11-09 13:55:00,
2013-11-09 09:00:00,74.8,73.0,30.09,East,86,8.0,16.0,94,0.05,,,0.39,120.0,meteohub,2013-11-09 14:00:00,
2013-11-09 09:05:00,75.0,73.2,30.09,East,90,14.0,15.0,94,0.05,,,0.39,47.0,meteohub,2013-11-09 14:05:00,
2013-11-09 09:10:00,75.0,72.9,30.10,East,81,9.0,16.0,93,0.05,,,0.39,139.0,meteohub,2013-11-09 14:10:00,
2013-11-09 09:15:00,74.8,72.7,30.10,NE,38,7.0,16.0,93,0.04,,,0.39,123.0,meteohub,2013-11-09 14:15:00,
2013-11-09 09:20:00,74.8,72.7,30.10,NE,51,9.0,16.0,93,0.01,,,0.39,125.0,meteohub,2013-11-09 14:20:00,
2013-11-09 09:25:00,75.0,72.9,30.10,ENE,73,7.0,16.0,93,0.00,,,0.39,213.0,meteohub,2013-11-09 14:25:00,
2013-11-09 09:30:00,75.4,72.9,30.10,NE,47,8.0,20.0,92,0.00,,,0.39,243.0,meteohub,2013-11-09 14:30:00,
2013-11-09 09:35:00,75.9,73.0,30.10,NE,34,7.0,20.0,91,0.00,,,0.39,278.0,meteohub,2013-11-09 14:35:00,
2013-11-09 09:40:00,76.6,73.2,30.10,East,88,17.0,20.0,89,0.00,,,0.39,543.0,meteohub,2013-11-09 14:40:00,
2013-11-09 09:45:00,77.4,73.2,30.10,ENE,73,10.0,18.0,87,0.00,,,0.39,123.0,meteohub,2013-11-09 14:45:00,
2013-11-09 09:52:00,77.4,72.9,-100.00,East,80,8.0,18.0,86,0.00,,,0.39,98.0,meteohub,2013-11-09 14:52:00,
2013-11-09 09:57:00,77.4,72.5,30.10,ENE,70,7.0,17.0,85,0.00,,,0.39,207.0,meteohub,2013-11-09 14:57:00,
2013-11-09 10:02:00,77.4,72.5,30.10,ESE,103,9.0,21.0,85,0.00,,,0.39,253.0,meteohub,2013-11-09 15:02:00,
2013-11-09 10:07:00,77.4,72.5,30.10,East,87,10.0,21.0,85,0.00,,,0.39,276.0,meteohub,2013-11-09 15:07:00,
2013-11-09 10:12:00,77.4,72.1,30.10,NE,48,7.0,18.0,84,0.00,,,0.39,265.0,meteohub,2013-11-09 15:12:00,
2013-11-09 10:17:00,77.5,72.3,30.10,NE,46,12.0,19.0,84,0.00,,,0.39,130.0,meteohub,2013-11-09 15:17:00,
2013-11-09 10:22:00,77.7,72.5,30.10,East,89,7.0,19.0,84,0.00,,,0.39,169.0,meteohub,2013-11-09 15:22:00,
2013-11-09 10:27:00,77.7,72.5,30.10,East,80,11.0,18.0,84,0.00,,,0.39,214.0,meteohub,2013-11-09 15:27:00,
2013-11-09 10:32:00,77.7,72.5,30.10,East,80,6.0,18.0,84,0.00,,,0.39,279.0,meteohub,2013-11-09 15:32:00,
2013-11-09 10:37:00,77.9,72.3,30.10,NNE,27,3.0,19.0,83,0.00,,,0.39,83.0,meteohub,2013-11-09 15:37:00,
2013-11-09 10:42:00,77.5,72.3,30.10,ENE,72,10.0,25.0,84,0.00,,,0.39,105.0,meteohub,2013-11-09 15:42:00,
2013-11-09 10:47:00,77.4,72.1,30.10,NE,49,17.0,25.0,84,0.00,,,0.39,77.0,meteohub,2013-11-09 15:47:00,
2013-11-09 10:52:00,77.2,72.0,30.10,NE,54,9.0,25.0,84,0.00,,,0.39,281.0,meteohub,2013-11-09 15:52:00,
2013-11-09 10:57:00,77.4,72.1,30.09,ENE,64,8.0,22.0,84,0.00,,,0.39,255.0,meteohub,2013-11-09 15:57:00,
2013-11-09 11:02:00,77.7,72.1,30.09,ENE,69,11.0,23.0,83,0.00,,,0.39,225.0,meteohub,2013-11-09 16:02:00,
2013-11-09 11:07:00,77.9,72.0,30.09,ENE,60,4.0,23.0,82,0.00,,,0.39,84.0,meteohub,2013-11-09 16:07:00,
2013-11-09 11:12:00,77.7,71.8,30.09,NE,42,16.0,18.0,82,0.00,,,0.39,97.0,meteohub,2013-11-09 16:12:00,
2013-11-09 11:17:00,77.7,71.8,30.09,ENE,63,10.0,18.0,82,0.00,,,0.39,127.0,meteohub,2013-11-09 16:17:00,
2013-11-09 11:22:00,77.9,71.6,30.09,NNE,13,6.0,24.0,81,0.00,,,0.39,192.0,meteohub,2013-11-09 16:22:00,
2013-11-09 11:28:00,78.1,71.8,30.09,East,79,15.0,24.0,81,0.00,,,0.39,188.0,meteohub,2013-11-09 16:28:00,
2013-11-09 11:33:00,78.3,71.6,30.09,ENE,57,12.0,24.0,80,0.00,,,0.39,121.0,meteohub,2013-11-09 16:33:00,
2013-11-09 11:38:00,78.3,72.0,30.08,East,90,13.0,23.0,81,0.00,,,0.39,193.0,meteohub,2013-11-09 16:38:00,
2013-11-09 11:43:00,78.4,72.1,30.08,ENE,65,4.0,23.0,81,0.00,,,0.39,113.0,meteohub,2013-11-09 16:43:00,
2013-11-09 11:48:00,78.3,72.0,30.08,NNE,22,12.0,19.0,81,0.00,,,0.39,95.0,meteohub,2013-11-09 16:48:00,
2013-11-09 11:53:00,77.9,71.6,30.08,East,85,6.0,19.0,81,0.00,,,0.39,109.0,meteohub,2013-11-09 16:53:00,
2013-11-09 11:58:00,77.7,71.4,30.08,East,91,8.0,20.0,81,0.00,,,0.39,113.0,meteohub,2013-11-09 16:58:00,
2013-11-09 12:03:00,77.7,71.4,30.08,East,81,13.0,23.0,81,0.00,,,0.39,120.0,meteohub,2013-11-09 17:03:00,
2013-11-09 12:08:00,77.7,71.4,30.08,East,96,9.0,23.0,81,0.00,,,0.39,148.0,meteohub,2013-11-09 17:08:00,
2013-11-09 12:13:00,77.9,71.6,30.07,NE,50,11.0,23.0,81,0.00,,,0.39,162.0,meteohub,2013-11-09 17:13:00,
2013-11-09 12:18:00,78.1,71.4,30.07,ENE,57,12.0,23.0,80,0.00,,,0.39,111.0,meteohub,2013-11-09 17:18:00,
2013-11-09 12:23:00,78.1,71.4,30.07,ENE,74,9.0,23.0,80,0.00,,,0.39,120.0,meteohub,2013-11-09 17:23:00,
2013-11-09 12:28:00,78.1,71.4,30.07,ENE,69,13.0,22.0,80,0.00,,,0.39,141.0,meteohub,2013-11-09 17:28:00,
2013-11-09 12:33:00,77.5,71.2,30.07,East,90,15.0,21.0,81,0.00,,,0.39,158.0,meteohub,2013-11-09 17:33:00,
2013-11-09 12:38:00,77.4,71.4,30.06,ENE,66,12.0,23.0,82,0.00,,,0.39,134.0,meteohub,2013-11-09 17:38:00,
2013-11-09 12:43:00,77.7,71.4,30.06,ENE,70,15.0,25.0,81,0.00,,,0.39,141.0,meteohub,2013-11-09 17:43:00,
2013-11-09 12:48:00,77.7,71.8,30.07,ENE,69,5.0,25.0,82,0.00,,,0.39,70.0,meteohub,2013-11-09 17:48:00,
2013-11-09 12:53:00,76.6,71.4,30.06,ENE,67,12.0,22.0,84,0.00,,,0.39,151.0,meteohub,2013-11-09 17:53:00,
2013-11-09 12:58:00,76.5,71.6,30.06,ENE,63,13.0,17.0,85,0.00,,,0.39,316.0,meteohub,2013-11-09 17:58:00,
2013-11-09 13:03:00,76.8,72.0,30.06,NE,51,16.0,18.0,85,0.00,,,0.39,374.0,meteohub,2013-11-09 18:03:00,
2013-11-09 13:08:00,77.4,72.1,30.06,ENE,61,10.0,21.0,84,0.00,,,0.39,236.0,meteohub,2013-11-09 18:08:00,
2013-11-09 13:13:00,77.5,72.0,30.06,NE,45,8.0,21.0,83,0.00,,,0.39,116.0,meteohub,2013-11-09 18:13:00,
2013-11-09 13:18:00,77.5,71.2,30.06,ENE,77,11.0,21.0,81,0.00,,,0.39,79.0,meteohub,2013-11-09 18:18:00,
2013-11-09 13:23:00,77.5,71.2,30.06,NE,37,12.0,18.0,81,0.00,,,0.39,83.0,meteohub,2013-11-09 18:23:00,
2013-11-09 13:28:00,77.5,71.2,30.06,ENE,65,5.0,20.0,81,0.00,,,0.39,90.0,meteohub,2013-11-09 18:28:00,
2013-11-09 13:33:00,77.5,71.2,30.06,ENE,76,5.0,20.0,81,0.00,,,0.39,79.0,meteohub,2013-11-09 18:33:00,
2013-11-09 13:38:00,77.4,71.1,30.06,East,88,5.0,20.0,81,0.00,,,0.39,76.0,meteohub,2013-11-09 18:38:00,
2013-11-09 13:43:00,76.8,70.9,30.06,ENE,65,17.0,18.0,82,0.00,,,0.39,93.0,meteohub,2013-11-09 18:43:00,
2013-11-09 13:48:00,75.9,71.1,30.06,East,81,9.0,17.0,85,0.00,,,0.39,120.0,meteohub,2013-11-09 18:48:00,
2013-11-09 13:53:00,75.2,71.1,30.06,ENE,63,10.0,23.0,87,0.00,,,0.39,153.0,meteohub,2013-11-09 18:53:00,
2013-11-09 13:59:00,74.7,71.2,30.06,East,79,8.0,23.0,89,0.01,,,0.40,132.0,meteohub,2013-11-09 18:59:00,
2013-11-09 14:04:00,74.7,71.6,30.06,ENE,78,5.0,22.0,90,0.01,,,0.40,97.0,meteohub,2013-11-09 19:04:00,
2013-11-09 14:09:00,74.5,71.6,30.06,ENE,65,5.0,16.0,91,0.01,,,0.40,149.0,meteohub,2013-11-09 19:09:00,
2013-11-09 14:14:00,74.5,71.6,30.06,ENE,59,5.0,11.0,91,0.02,,,0.41,190.0,meteohub,2013-11-09 19:14:00,
2013-11-09 14:19:00,74.5,72.0,30.06,NE,40,5.0,11.0,92,0.02,,,0.41,111.0,meteohub,2013-11-09 19:19:00,
2013-11-09 14:24:00,74.3,71.8,30.06,NE,49,4.0,12.0,92,0.02,,,0.41,90.0,meteohub,2013-11-09 19:24:00,
2013-11-09 14:29:00,74.1,71.6,30.06,ENE,62,8.0,12.0,92,0.02,,,0.41,49.0,meteohub,2013-11-09 19:29:00,
2013-11-09 14:34:00,74.1,71.2,30.06,NE,51,10.0,12.0,91,0.02,,,0.41,93.0,meteohub,2013-11-09 19:34:00,
2013-11-09 14:39:00,74.3,71.4,30.06,ENE,60,10.0,22.0,91,0.02,,,0.41,176.0,meteohub,2013-11-09 19:39:00,
2013-11-09 14:44:00,74.5,71.6,30.06,ENE,68,4.0,22.0,91,0.02,,,0.41,193.0,meteohub,2013-11-09 19:44:00,
2013-11-09 14:49:00,74.7,71.8,30.06,NNE,32,7.0,22.0,91,0.02,,,0.41,200.0,meteohub,2013-11-09 19:49:00,
2013-11-09 14:54:00,75.0,72.0,30.06,NE,53,9.0,19.0,90,0.02,,,0.41,158.0,meteohub,2013-11-09 19:54:00,
2013-11-09 14:59:00,75.2,71.8,30.06,NE,53,10.0,19.0,89,0.01,,,0.41,111.0,meteohub,2013-11-09 19:59:00,
2013-11-09 15:04:00,75.6,71.8,30.05,NE,47,3.0,19.0,88,0.01,,,0.41,105.0,meteohub,2013-11-09 20:04:00,
2013-11-09 15:09:00,75.9,71.8,30.05,ENE,57,5.0,13.0,87,0.01,,,0.41,105.0,meteohub,2013-11-09 20:09:00,
2013-11-09 15:14:00,76.3,71.4,30.05,ENE,59,9.0,15.0,85,0.00,,,0.41,93.0,meteohub,2013-11-09 20:14:00,
2013-11-09 15:19:00,76.6,71.4,30.05,NE,55,9.0,15.0,84,0.00,,,0.41,135.0,meteohub,2013-11-09 20:19:00,
2013-11-09 15:24:00,77.0,71.4,30.05,NNE,26,5.0,21.0,83,0.00,,,0.41,104.0,meteohub,2013-11-09 20:24:00,
2013-11-09 15:29:00,77.2,71.2,30.05,East,80,11.0,21.0,82,0.00,,,0.41,86.0,meteohub,2013-11-09 20:29:00,
2013-11-09 15:34:00,77.4,71.1,30.05,NE,50,10.0,15.0,81,0.00,,,0.41,93.0,meteohub,2013-11-09 20:34:00,
2013-11-09 15:39:00,77.5,71.2,30.05,NE,51,9.0,15.0,81,0.00,,,0.41,77.0,meteohub,2013-11-09 20:39:00,
2013-11-09 15:44:00,77.5,71.2,30.05,ENE,64,4.0,16.0,81,0.00,,,0.41,62.0,meteohub,2013-11-09 20:44:00,
2013-11-09 15:49:00,77.5,71.2,30.05,ENE,57,5.0,16.0,81,0.00,,,0.41,53.0,meteohub,2013-11-09 20:49:00,
2013-11-09 15:54:00,77.5,71.2,30.05,ENE,59,11.0,16.0,81,0.00,,,0.41,46.0,meteohub,2013-11-09 20:54:00,
2013-11-09 15:59:00,77.5,71.2,30.05,ENE,62,12.0,16.0,81,0.00,,,0.41,32.0,meteohub,2013-11-09 20:59:00,
2013-11-09 16:04:00,77.5,71.2,30.05,ENE,65,11.0,15.0,81,0.00,,,0.41,54.0,meteohub,2013-11-09 21:04:00,
2013-11-09 16:09:00,77.4,71.1,30.05,NE,52,6.0,19.0,81,0.00,,,0.41,62.0,meteohub,2013-11-09 21:09:00,
2013-11-09 16:14:00,77.4,71.1,30.06,ENE,66,9.0,19.0,81,0.00,,,0.41,39.0,meteohub,2013-11-09 21:14:00,
2013-11-09 16:19:00,77.4,71.1,30.06,East,88,8.0,20.0,81,0.00,,,0.41,21.0,meteohub,2013-11-09 21:19:00,
2013-11-09 16:24:00,77.4,71.1,30.06,ENE,65,13.0,20.0,81,0.00,,,0.41,21.0,meteohub,2013-11-09 21:24:00,
2013-11-09 16:29:00,77.2,70.9,30.06,ENE,62,7.0,18.0,81,0.00,,,0.41,21.0,meteohub,2013-11-09 21:29:00,
2013-11-09 16:34:00,77.2,70.9,30.06,ENE,76,4.0,17.0,81,0.00,,,0.41,14.0,meteohub,2013-11-09 21:34:00,
2013-11-09 16:39:00,77.2,70.9,30.06,ENE,60,4.0,18.0,81,0.00,,,0.41,12.0,meteohub,2013-11-09 21:39:00,
2013-11-09 16:45:00,77.0,71.1,30.06,East,82,8.0,18.0,82,0.00,,,0.41,9.0,meteohub,2013-11-09 21:45:00,
2013-11-09 16:50:00,76.8,70.9,30.06,ENE,72,13.0,18.0,82,0.00,,,0.41,7.0,meteohub,2013-11-09 21:50:00,
2013-11-09 16:55:00,76.8,70.9,30.06,ENE,78,10.0,16.0,82,0.00,,,0.41,11.0,meteohub,2013-11-09 21:55:00,
2013-11-09 17:00:00,76.8,70.9,30.06,ENE,60,8.0,17.0,82,0.00,,,0.41,11.0,meteohub,2013-11-09 22:00:00,
2013-11-09 17:05:00,76.6,70.7,30.06,NE,46,11.0,26.0,82,0.00,,,0.41,9.0,meteohub,2013-11-09 22:05:00,
2013-11-09 17:10:00,76.6,71.1,30.06,NE,42,10.0,26.0,83,0.00,,,0.41,7.0,meteohub,2013-11-09 22:10:00,
2013-11-09 17:15:00,76.5,70.9,30.06,NE,42,12.0,26.0,83,0.00,,,0.41,5.0,meteohub,2013-11-09 22:15:00,
2013-11-09 17:20:00,76.5,71.2,30.06,NE,44,13.0,18.0,84,0.00,,,0.41,5.0,meteohub,2013-11-09 22:20:00,
2013-11-09 17:25:00,76.3,71.1,30.06,NE,47,9.0,18.0,84,0.00,,,0.41,5.0,meteohub,2013-11-09 22:25:00,
2013-11-09 17:30:00,76.3,71.4,30.06,ENE,64,10.0,18.0,85,0.00,,,0.41,0.0,meteohub,2013-11-09 22:30:00,
2013-11-09 17:35:00,76.1,70.9,30.06,NE,42,7.0,21.0,84,0.00,,,0.41,0.0,meteohub,2013-11-09 22:35:00,
2013-11-09 17:40:00,76.3,71.1,30.06,NNE,23,7.0,21.0,84,0.00,,,0.41,0.0,meteohub,2013-11-09 22:40:00,
2013-11-09 17:45:00,76.3,71.1,30.06,ENE,75,13.0,21.0,84,0.00,,,0.41,0.0,meteohub,2013-11-09 22:45:00,
2013-11-09 17:50:00,76.3,71.1,30.06,ENE,68,13.0,15.0,84,0.00,,,0.41,0.0,meteohub,2013-11-09 22:50:00,
2013-11-09 17:55:00,76.5,70.9,30.07,ENE,73,10.0,23.0,83,0.00,,,0.41,0.0,meteohub,2013-11-09 22:55:00,
2013-11-09 18:00:00,76.6,71.1,30.07,ENE,69,2.0,23.0,83,0.00,,,0.41,0.0,meteohub,2013-11-09 23:00:00,
2013-11-09 18:05:00,76.6,71.1,30.07,ENE,72,12.0,23.0,83,0.00,,,0.41,0.0,meteohub,2013-11-09 23:05:00,
2013-11-09 18:10:00,76.6,70.7,30.07,ENE,63,8.0,21.0,82,0.00,,,0.41,0.0,meteohub,2013-11-09 23:10:00,
2013-11-09 18:15:00,76.6,70.7,30.07,ENE,59,8.0,14.0,82,0.00,,,0.41,0.0,meteohub,2013-11-09 23:15:00,
2013-11-09 18:20:00,76.6,70.7,30.07,ENE,70,8.0,14.0,82,0.00,,,0.41,0.0,meteohub,2013-11-09 23:20:00,
2013-11-09 18:25:00,76.6,70.7,30.08,NNE,30,5.0,14.0,82,0.00,,,0.41,0.0,meteohub,2013-11-09 23:25:00,
2013-11-09 18:30:00,76.8,70.9,30.08,ENE,64,7.0,15.0,82,0.00,,,0.41,0.0,meteohub,2013-11-09 23:30:00,
2013-11-09 18:35:00,76.8,70.9,30.08,NE,55,8.0,15.0,82,0.00,,,0.41,0.0,meteohub,2013-11-09 23:35:00,
2013-11-09 18:40:00,77.0,70.7,30.08,ENE,75,5.0,15.0,81,0.00,,,0.41,0.0,meteohub,2013-11-09 23:40:00,
2013-11-09 18:45:00,77.2,70.9,30.08,NE,52,8.0,17.0,81,0.00,,,0.41,0.0,meteohub,2013-11-09 23:45:00,
2013-11-09 18:50:00,77.2,70.9,30.08,East,80,13.0,17.0,81,0.00,,,0.41,0.0,meteohub,2013-11-09 23:50:00,
2013-11-09 18:55:00,77.2,70.9,30.08,NE,53,12.0,18.0,81,0.00,,,0.41,0.0,meteohub,2013-11-09 23:55:00,
2013-11-09 19:00:00,76.8,70.5,30.08,ENE,76,10.0,18.0,81,0.00,,,0.41,0.0,meteohub,2013-11-10 00:00:00,
2013-11-09 19:05:00,76.6,70.7,30.08,NE,54,6.0,18.0,82,0.00,,,0.41,0.0,meteohub,2013-11-10 00:05:00,
2013-11-09 19:10:00,76.5,70.9,30.09,NNE,26,14.0,17.0,83,0.00,,,0.41,0.0,meteohub,2013-11-10 00:10:00,
2013-11-09 19:16:00,76.3,71.1,30.09,NE,55,4.0,17.0,84,0.00,,,0.41,0.0,meteohub,2013-11-10 00:16:00,
2013-11-09 19:21:00,75.9,70.7,30.09,NE,48,3.0,16.0,84,0.00,,,0.41,0.0,meteohub,2013-11-10 00:21:00,
2013-11-09 19:26:00,76.3,70.7,30.09,ENE,61,8.0,14.0,83,0.00,,,0.41,0.0,meteohub,2013-11-10 00:26:00,
2013-11-09 19:31:00,76.5,70.9,30.09,NE,49,11.0,17.0,83,0.00,,,0.41,0.0,meteohub,2013-11-10 00:31:00,
2013-11-09 19:36:00,76.6,70.7,30.09,ENE,66,3.0,17.0,82,0.00,,,0.41,0.0,meteohub,2013-11-10 00:36:00,
2013-11-09 19:41:00,76.6,70.7,30.09,NE,49,3.0,17.0,82,0.00,,,0.41,0.0,meteohub,2013-11-10 00:41:00,
2013-11-09 19:46:00,76.6,70.7,30.09,ENE,57,3.0,15.0,82,0.00,,,0.41,0.0,meteohub,2013-11-10 00:46:00,
2013-11-09 19:51:00,76.6,70.7,30.09,ENE,73,4.0,15.0,82,0.00,,,0.41,0.0,meteohub,2013-11-10 00:51:00,
2013-11-09 19:56:00,76.6,70.3,30.09,East,80,9.0,12.0,81,0.00,,,0.41,0.0,meteohub,2013-11-10 00:56:00,
2013-11-09 20:01:00,76.8,70.5,30.09,ENE,69,7.0,12.0,81,0.00,,,0.41,0.0,meteohub,2013-11-10 01:01:00,
2013-11-09 20:06:00,76.8,70.5,30.09,NE,48,8.0,14.0,81,0.00,,,0.41,0.0,meteohub,2013-11-10 01:06:00,
2013-11-09 20:11:00,77.2,70.9,30.09,ENE,68,7.0,15.0,81,0.00,,,0.41,0.0,meteohub,2013-11-10 01:11:00,
2013-11-09 20:17:00,77.2,70.9,30.09,ENE,57,5.0,15.0,81,0.00,,,0.41,0.0,meteohub,2013-11-10 01:17:00,
2013-11-09 20:22:00,76.8,70.5,30.09,East,92,7.0,16.0,81,0.00,,,0.41,0.0,meteohub,2013-11-10 01:22:00,
2013-11-09 20:28:00,76.8,70.5,30.09,East,80,10.0,16.0,81,0.00,,,0.41,0.0,meteohub,2013-11-10 01:28:00,
2013-11-09 20:33:00,76.8,70.9,30.09,NNE,33,6.0,16.0,82,0.00,,,0.41,0.0,meteohub,2013-11-10 01:33:00,
2013-11-09 20:38:00,76.8,70.9,30.09,ENE,71,7.0,16.0,82,0.00,,,0.41,0.0,meteohub,2013-11-10 01:38:00,
2013-11-09 20:43:00,77.2,70.9,30.09,NE,55,12.0,12.0,81,0.00,,,0.41,0.0,meteohub,2013-11-10 01:43:00,
2013-11-09 20:48:00,77.2,70.9,30.09,NE,55,8.0,14.0,81,0.00,,,0.41,0.0,meteohub,2013-11-10 01:48:00,
2013-11-09 20:53:00,77.4,70.7,30.09,East,80,7.0,17.0,80,0.00,,,0.41,0.0,meteohub,2013-11-10 01:53:00,
2013-11-09 20:58:00,77.4,70.7,30.09,ENE,60,4.0,17.0,80,0.00,,,0.41,0.0,meteohub,2013-11-10 01:58:00,
2013-11-09 21:04:00,77.4,70.7,30.09,NE,55,9.0,15.0,80,0.00,,,0.41,0.0,meteohub,2013-11-10 02:04:00,
2013-11-09 21:08:00,77.5,70.9,30.09,NE,34,7.0,15.0,80,0.00,,,0.41,0.0,meteohub,2013-11-10 02:08:00,
2013-11-09 21:14:00,77.4,70.7,30.10,NE,48,11.0,17.0,80,0.00,,,0.41,0.0,meteohub,2013-11-10 02:14:00,
2013-11-09 21:19:00,77.5,70.9,30.10,ENE,64,12.0,17.0,80,0.00,,,0.41,0.0,meteohub,2013-11-10 02:19:00,
2013-11-09 21:24:00,77.5,70.9,30.10,NE,53,9.0,17.0,80,0.00,,,0.41,0.0,meteohub,2013-11-10 02:24:00,
2013-11-09 21:29:00,77.5,70.9,30.09,NE,42,14.0,16.0,80,0.00,,,0.41,0.0,meteohub,2013-11-10 02:29:00,
2013-11-09 21:34:00,77.4,71.1,30.10,ENE,59,13.0,16.0,81,0.00,,,0.41,0.0,meteohub,2013-11-10 02:34:00,
2013-11-09 21:39:00,77.0,71.1,30.10,NE,56,4.0,20.0,82,0.00,,,0.41,0.0,meteohub,2013-11-10 02:39:00,
2013-11-09 21:44:00,76.6,71.1,30.10,East,86,5.0,20.0,83,0.00,,,0.41,0.0,meteohub,2013-11-10 02:44:00,
2013-11-09 21:49:00,76.5,70.9,30.10,ENE,76,17.0,20.0,83,0.00,,,0.41,0.0,meteohub,2013-11-10 02:49:00,
2013-11-09 21:54:00,76.5,70.9,30.10,ENE,78,8.0,18.0,83,0.00,,,0.41,0.0,meteohub,2013-11-10 02:54:00,
2013-11-09 21:59:00,76.6,71.1,30.10,ENE,69,12.0,18.0,83,0.00,,,0.41,0.0,meteohub,2013-11-10 02:59:00,
2013-11-09 22:04:00,76.6,71.1,30.10,NE,48,7.0,18.0,83,0.00,,,0.41,0.0,meteohub,2013-11-10 03:04:00,
2013-11-09 22:09:00,76.8,71.2,30.10,ENE,72,4.0,15.0,83,0.00,,,0.41,0.0,meteohub,2013-11-10 03:09:00,
2013-11-09 22:14:00,76.8,70.9,30.10,ENE,67,8.0,15.0,82,0.00,,,0.41,0.0,meteohub,2013-11-10 03:14:00,
2013-11-09 22:19:00,77.2,71.2,30.09,ENE,66,9.0,16.0,82,0.00,,,0.41,0.0,meteohub,2013-11-10 03:19:00,
2013-11-09 22:24:00,77.2,71.2,30.09,ENE,67,10.0,18.0,82,0.00,,,0.41,0.0,meteohub,2013-11-10 03:24:00,
2013-11-09 22:29:00,77.4,71.1,30.09,NE,45,9.0,18.0,81,0.00,,,0.41,0.0,meteohub,2013-11-10 03:29:00,
2013-11-09 22:34:00,77.4,71.1,30.09,ENE,65,8.0,18.0,81,0.00,,,0.41,0.0,meteohub,2013-11-10 03:34:00,
2013-11-09 22:39:00,77.4,71.1,30.09,ENE,70,8.0,14.0,81,0.00,,,0.41,0.0,meteohub,2013-11-10 03:39:00,
2013-11-09 22:44:00,77.5,71.2,30.09,NE,39,6.0,14.0,81,0.00,,,0.41,0.0,meteohub,2013-11-10 03:44:00,
2013-11-09 22:49:00,77.5,71.2,30.09,East,84,13.0,15.0,81,0.00,,,0.41,0.0,meteohub,2013-11-10 03:49:00,
2013-11-09 22:54:00,77.5,71.2,30.09,ENE,63,7.0,15.0,81,0.00,,,0.41,0.0,meteohub,2013-11-10 03:54:00,
2013-11-09 22:59:00,77.5,71.2,30.09,ENE,59,11.0,15.0,81,0.00,,,0.41,0.0,meteohub,2013-11-10 03:59:00,
2013-11-09 23:04:00,77.7,71.4,30.09,ENE,60,13.0,15.0,81,0.00,,,0.41,0.0,meteohub,2013-11-10 04:04:00,
2013-11-09 23:09:00,77.7,71.4,30.09,ENE,57,15.0,19.0,81,0.00,,,0.41,0.0,meteohub,2013-11-10 04:09:00,
2013-11-09 23:14:00,77.7,71.8,30.09,NNE,31,7.0,19.0,82,0.00,,,0.41,0.0,meteohub,2013-11-10 04:14:00,
2013-11-09 23:19:00,77.7,71.8,30.09,ENE,70,8.0,16.0,82,0.00,,,0.41,0.0,meteohub,2013-11-10 04:19:00,
2013-11-09 23:24:00,77.5,71.6,30.09,NE,53,7.0,16.0,82,0.00,,,0.41,0.0,meteohub,2013-11-10 04:24:00,
2013-11-09 23:29:00,77.5,71.6,30.09,ENE,64,13.0,16.0,82,0.00,,,0.41,0.0,meteohub,2013-11-10 04:29:00,
2013-11-09 23:34:00,77.5,71.6,30.08,East,88,9.0,21.0,82,0.00,,,0.41,0.0,meteohub,2013-11-10 04:34:00,
2013-11-09 23:39:00,77.5,71.6,30.08,ENE,77,10.0,21.0,82,0.00,,,0.41,0.0,meteohub,2013-11-10 04:39:00,
2013-11-09 23:44:00,77.4,71.8,30.08,ENE,69,4.0,21.0,83,0.00,,,0.41,0.0,meteohub,2013-11-10 04:44:00,
2013-11-09 23:49:00,77.4,71.8,30.08,ENE,76,5.0,15.0,83,0.00,,,0.41,0.0,meteohub,2013-11-10 04:49:00,
2013-11-09 23:54:00,77.4,71.8,30.08,East,86,9.0,15.0,83,0.00,,,0.41,0.0,meteohub,2013-11-10 04:54:00,
2013-11-09 23:59:00,77.4,71.4,30.08,NE,55,8.0,13.0,82,0.00,,,0.41,0.0,meteohub,2013-11-10 04:59:00,